Location: Rimouski
(48.4330°N, 68.5170°W)
Time: 19:30:30
(UTC-04:00)

Daily predictions for brighter satellites

Satellite Brightness Start Highest point End
(mag) Time Altitude Azimuth Time Altitude Azimuth Time Altitude Azimuth
Cosmos 1812 3.9 20:19:35 10° NNW 20:23:19 46° W 20:27:02 10° SSW
Cosmos 2360 4.4 20:19:06 10° S 20:24:34 51° ESE 20:30:04 10° NE
Helios 1B rocket 3.4 20:21:21 10° NE 20:24:53 27° E 20:28:23 10° SSE
Cosmos 1536 Rocket 4.0 20:21:37 10° N 20:25:47 43° ENE 20:29:54 10° SSE
PEGASUS R/B 4.2 20:24:16 10° NNE 20:27:10 65° ESE 20:31:58 10° SSW
Cosmos 839 Rocket 4.4 20:21:31 10° S 20:27:16 41° ESE 20:33:05 10° NE
Cosmos 2297 Rocket 4.4 20:23:51 10° NW 20:28:22 25° WSW 20:32:52 10° SSW
Cosmos 1939 Rocket 2.8 20:25:58 10° SSE 20:29:59 81° ENE 20:33:57 10° N
Okean 2 Rocket 3.1 20:30:09 10° S 20:34:40 89° E 20:39:13 10° N
Cosmos 1602 4.0 20:31:01 10° SSE 20:34:43 47° E 20:38:25 10° NNE
Cosmos 1850 Rocket 4.5 20:31:05 10° NNW 20:36:17 48° ENE 20:41:18 11° SE
Cosmos 1452 Rocket 3.7 20:31:33 10° S 20:36:38 51° ESE 20:41:45 10° NNE
Okean 1 3.8 20:33:41 10° NNW 20:37:38 63° W 20:41:34 10° S
Meteor 1-19 Rocket 4.3 20:36:23 10° N 20:42:19 76° ENE 20:48:09 10° SSE
Cosmos 1420 Rocket 4.4 20:38:09 10° S 20:42:58 40° ESE 20:47:48 10° NE
Cosmos 1536 3.7 20:40:55 10° SSE 20:44:31 31° E 20:48:07 10° NNE
ATLAS 2AS CENTAUR R/B 4.0 20:38:56 10° SSE 20:44:41 23° ESE 20:50:41 10° ENE
Lacrosse 5 rocket 1.5 20:42:06 10° WNW 20:45:41 56° SW 20:49:00 13° SE
Cosmos 44 3.4 20:44:44 10° NW 20:49:05 61° WSW 20:53:32 10° SSE
NOSS 3-1 (A) 3.4 20:44:46 10° SSW 20:50:36 80° SE 20:57:17 10° NE
MetOp-A 4.4 20:46:23 10° SE 20:51:28 52° ENE 20:56:39 10° N
GENESIS II 4.2 20:50:06 10° NW 20:54:05 77° NE 20:57:05 16° SE
BREEZE M DEB (TANK) 3.8 20:43:18 10° WSW 20:54:15 86° NNW 20:57:42 10° ENE
Cosmos 2322 Rocket 2.7 20:51:40 10° S 20:56:55 39° ESE 21:02:10 10° NE
Helios 1A 3.1 20:52:57 10° S 20:57:12 78° WSW 21:01:29 10° NNW
Cosmos 2263 Rocket 2.4 20:52:16 10° NNW 20:57:56 60° ENE 21:02:30 16° SE
S3M 4.1 20:54:29 10° N 21:00:44 80° W 21:07:02 10° S
Cosmos 2315 Rocket 4.4 20:56:37 10° N 21:02:37 47° ENE 21:07:31 15° SE
ARGOS 3.4 21:00:20 14° SE 21:04:46 55° ENE 21:10:01 10° N
Cosmos 1553 Rocket 4.3 20:58:58 10° NNW 21:05:09 69° W 21:11:11 10° S
SL-16 R/B 2.5 20:59:59 10° S 21:05:20 45° ESE 21:10:43 10° NE
Cosmos 1844 Rocket 4.3 21:02:18 10° N 21:06:44 23° NE 21:10:51 11° E
SAR-Lupe-4 3.5 21:07:31 15° SSE 21:10:24 87° ENE 21:14:01 10° NNW
Okean 2 4.1 21:07:59 10° N 21:11:47 36° ENE 21:13:48 22° SE
Abrixas rocket 2.1 21:09:22 10° WSW 21:12:39 71° SSE 21:14:57 18° E
Resurs 01 Rocket 4.2 21:10:32 10° SW 21:13:42 19° W 21:16:54 10° NW
Cosmos 2266 Rocket 3.9 21:12:10 10° S 21:18:11 70° E 21:24:11 10° NNE
Okean 1-7 Rocket 3.9 21:14:08 10° N 21:18:29 49° ENE 21:21:01 23° SE
YAOGAN 11 4.5 21:17:08 22° SE 21:19:41 48° ENE 21:23:52 10° N
CZ-4B DEB 3.4 21:18:17 14° S 21:20:32 45° W 21:23:21 10° NNW
SeaSat 1 3.5 21:15:48 10° NNE 21:20:33 48° NW 21:25:16 10° SW
Terra 3.2 21:19:00 18° E 21:21:14 25° ENE 21:25:05 10° N
NOSS 3-1 (C) 4.2 21:15:51 10° WSW 21:21:43 58° NW 21:28:24 10° NE
Atlas Centaur 2 4.1 21:18:52 10° SW 21:23:05 16° S 21:24:56 15° SSE
Cosmos 1140 Rocket 4.5 21:18:30 10° NW 21:23:27 43° WSW 21:28:22 10° S
H-2A R/B 2.2 21:22:24 22° SE 21:25:34 54° ENE 21:30:28 10° N
Meteor 1-5 Rocket 4.1 21:20:35 10° S 21:25:51 62° E 21:31:06 10° NNE
SAR-Lupe-1 4.2 21:25:13 20° S 21:27:36 70° WSW 21:31:12 10° NNW
Okean 1 Rocket 3.0 21:24:16 16° S 21:27:42 64° E 21:32:03 10° NNE
NOSS 2-3 (C) 4.3 21:24:02 10° S 21:28:29 41° ESE 21:33:41 10° NE
Cosmos 1607 4.0 21:22:39 10° NW 21:29:09 84° NE 21:33:23 23° SE
USA 215 4.3 21:23:05 10° ENE 21:29:10 43° N 21:35:16 10° WNW
Meteor 2-4 Rocket 4.0 21:24:20 10° NNW 21:29:46 65° W 21:35:12 11° S
Meteor 1-29 3.2 21:26:44 10° N 21:30:11 71° WNW 21:33:35 10° SSW
Cosmos 2360 Rocket 2.9 21:30:47 23° SE 21:33:04 32° ESE 21:38:00 10° NE
Cosmos 1741 Rocket 4.3 21:28:31 10° NNW 21:33:42 64° WSW 21:37:32 18° S
Cosmos 1980 Rocket 3.3 21:28:45 10° SW 21:34:08 47° NW 21:39:34 10° NNE
Cosmos 1238 Rocket 4.4 21:30:03 10° N 21:36:34 51° ENE 21:40:21 25° SE
USA 238 DEB 4.1 21:30:09 10° NW 21:37:09 60° NE 21:41:49 22° ESE
USA 238 4.1 21:30:15 10° NW 21:37:16 59° NE 21:41:55 22° ESE
Cosmos 1500 4.1 21:37:16 30° ESE 21:37:39 30° E 21:41:05 10° NNE
Cosmos 1300 Rocket 3.8 21:34:20 10° SSW 21:38:37 69° W 21:42:56 10° N
Tiangong 1 2.6 21:37:06 10° WSW 21:38:33 20° SW 21:38:33 20° SW
BREEZE-M DEB (TANK) 3.5 21:37:47 10° SW 21:41:29 66° SSE 21:54:44 10° ENE
MetOp-B 4.5 21:41:12 16° S 21:45:25 63° WSW 21:50:46 10° NNW
CARTOSAT-1 4.3 21:45:19 30° ESE 21:46:36 37° ENE 21:50:36 10° N
SL-08 RB Rocket 3.8 21:47:21 26° S 21:49:54 78° WSW 21:54:30 10° NNW
ERS-1 Rocket 3.8 21:45:59 13° S 21:50:13 47° W 21:55:05 10° NNW
Cosmos 1025 Rocket 3.0 21:45:57 10° NNW 21:50:15 78° W 21:52:20 29° S
USA 245 4.1 21:46:31 21° S 21:50:15 72° WSW 21:54:52 10° NNW
ERBS 2.4 21:47:31 10° WSW 21:51:00 79° NW 21:54:29 10° NE
SPOT 5 2.9 21:48:22 25° S 21:51:19 77° WSW 21:56:05 10° NNW
BREEZE-M DEB 3.3 21:43:03 10° WNW 21:52:12 87° SSW 21:53:33 38° ESE
Cosmos 405 4.2 21:52:48 28° ENE 21:52:48 28° ENE 21:55:25 10° NNE
DMSP B5D2-2 4.4 21:51:45 10° NNE 21:56:50 47° E 21:58:33 35° SE
SL-8 R/B 3.6 21:52:24 10° W 21:57:13 86° SSW 21:59:23 33° ESE
Cosmos 1975 3.4 21:57:27 37° E 21:57:31 38° E 22:01:15 10° NNE
IGS 5A 4.0 21:56:40 38° ESE 21:57:34 44° ENE 22:01:33 10° N
Nimbus 7 Rocket 4.4 21:53:07 10° NNE 21:58:55 59° ESE 22:02:01 28° S
Helios 1B rocket 4.2 21:56:33 10° N 22:00:12 32° WNW 22:03:51 10° SW
H-2A R/B 3.2 21:59:25 27° E 22:00:16 29° ENE 22:04:04 10° N
Cosmos 1486 Rocket 4.3 21:55:14 10° NNW 22:00:25 53° ENE 22:02:18 35° ESE
Lacrosse 5 3.1 22:02:48 24° E 22:02:48 24° E 22:05:13 10° ENE
Cosmos 1066 Rocket 4.2 21:56:38 10° N 22:02:00 63° ENE 22:04:03 37° SE
Cosmos 220 Rocket 4.4 21:58:26 10° NNW 22:02:39 57° WSW 22:04:16 34° S
ATLAS 3B R/B 2.6 21:58:18 10° NW 22:05:10 86° NE 22:08:18 34° SE
NOSS 2-3 (D) 3.8 22:03:13 10° SSW 22:07:59 77° SE 22:13:41 10° NE
NOSS 3-2 (C) 4.5 22:06:52 10° NW 22:13:54 51° NE 22:18:47 23° ESE
Cosmos 1110 Rocket 3.8 22:12:58 29° S 22:15:36 76° ESE 22:20:48 10° NNE
Cosmos 1892 Rocket 3.5 22:13:45 10° N 22:18:14 87° W 22:19:16 53° S
Cosmos 1626 Rocket 4.3 22:15:31 10° N 22:19:33 36° ENE 22:19:45 36° E
GP-B 3.6 22:16:16 10° NNE 22:20:31 42° E 22:20:38 41° E
Cosmos 1666 4.2 22:24:35 26° ENE 22:24:35 26° ENE 22:26:59 10° NNE
SPOT 1/Viking Rocket 4.2 22:24:07 28° SSW 22:26:34 51° W 22:31:41 10° NNW
Cosmos 1743 3.6 22:27:50 37° ENE 22:27:50 37° ENE 22:30:41 10° NNE
Nadezhda 1 Rocket 4.0 22:25:39 10° N 22:31:56 73° E 22:34:03 44° SSE
EXPRESS MD2 3.9 22:28:24 10° WSW 22:32:07 90° N 22:39:59 10° ENE
Cosmos 2237 4.2 22:32:15 48° SSE 22:33:25 58° ESE 22:39:00 10° NE
Cosmos 1331 Rocket 3.9 22:31:13 33° SSW 22:33:39 87° WNW 22:38:55 10° NNE
Cosmos 1354 Rocket 4.3 22:28:29 10° NNW 22:33:44 55° ENE 22:34:55 45° ESE
Cosmos 2278 Rocket 3.2 22:29:23 10° NNW 22:34:37 36° NE 22:36:33 28° E
ATLAS 2AS CENTAUR R/B 3.0 22:26:53 10° SW 22:34:42 85° SE 22:42:54 10° NE
Cosmos 1544 Rocket 3.5 22:38:19 68° S 22:38:53 90° WNW 22:43:23 10° N
CZ-4C R/B 4.4 22:40:21 31° NE 22:40:21 31° NE 22:42:59 10° N
Cosmos 2322 Rocket 3.5 22:35:36 10° WSW 22:40:58 41° NW 22:46:21 10° NNE
Cosmos 2263 Rocket 3.8 22:36:52 10° NW 22:41:27 25° WSW 22:44:12 18° SW
NOSS 2-3 (E) 4.5 22:40:31 10° SW 22:45:21 61° NW 22:51:11 10° NE
Abrixas rocket 4.1 22:46:03 10° W 22:47:33 25° W 22:47:33 25° W
SL-16 R/B 3.7 22:44:22 10° WSW 22:49:35 36° NW 22:54:49 10° NNE
Cosmos 1709 Rocket 4.3 22:50:11 43° ESE 22:51:00 45° E 22:56:52 10° NNE
Cosmos 1844 Rocket 2.6 22:45:38 10° NNW 22:51:22 84° WSW 22:52:30 59° SSE
Cosmos 1455 Rocket 3.1 22:51:37 69° SW 22:52:01 76° W 22:56:30 10° N
BREEZE-M DEB (TANK) 4.0 22:35:02 10° WSW 22:54:33 75° SSE 22:58:22 18° ENE
Cosmos 2322 3.7 22:52:32 32° SW 22:55:16 80° WNW 23:01:00 10° NNE
Cosmos 1503 Rocket 3.9 22:52:47 10° NNW 22:58:11 84° ENE 22:58:54 67° SE
Terra 2.4 22:57:53 42° SW 22:58:43 47° W 23:03:20 10° NNW
CENTAUR R/B 3.8 22:52:05 10° NW 22:59:16 45° NE 23:04:53 19° E
COSMOS 2428 2.6 23:00:05 62° SSE 23:00:44 68° ESE 23:06:26 10° NNE
Cosmos 1437 Rocket 3.1 23:03:00 63° N 23:03:00 63° N 23:06:24 10° N
SL-19 R/B 4.4 22:57:11 10° NNE 23:03:34 83° ESE 23:05:21 50° S
CZ-4B R/B 3.7 22:59:50 10° NNE 23:03:58 51° ENE 23:03:58 51° ENE
Cosmos 2219 Rocket 2.6 23:05:32 45° E 23:05:32 45° E 23:10:26 10° NE
H-2A R/B 3.9 23:03:02 17° SW 23:05:18 22° W 23:09:14 10° NW
SL-16 R/B 4.5 23:07:31 10° ENE 23:07:31 10° ENE 23:07:46 10° ENE
ALOS 2 3.9 23:06:36 30° ENE 23:06:36 30° ENE 23:10:18 10° N
USA 215 3.6 23:07:52 27° E 23:11:37 63° NNE 23:18:05 10° NW
Cosmos 1844 3.6 23:07:44 10° NNW 23:13:24 74° WSW 23:14:05 66° SSW
Spot 4 3.9 23:13:32 66° WSW 23:13:43 67° WSW 23:18:29 10° NNW
Cosmos 2333 Rocket 2.7 23:15:39 43° E 23:15:39 43° E 23:20:18 10° NE
CZ-2C R/B 3.4 23:10:57 10° NNE 23:15:27 38° E 23:15:27 38° E
Cosmos 2360 Rocket 3.0 23:12:28 15° SW 23:16:53 48° NW 23:22:21 10° NNE
Cosmos 724 4.1 23:12:37 10° NW 23:18:34 81° SW 23:19:13 70° S
Cosmos 2333 4.1 23:25:25 67° SW 23:26:14 87° WNW 23:31:54 10° NNE
USA 238 DEB 4.4 23:21:26 10° NW 23:27:57 40° WSW 23:29:14 37° SW
USA 238 4.4 23:21:32 10° NW 23:28:03 41° WSW 23:29:21 37° SW
NOSS 3-2 (A) 4.0 23:22:04 10° NW 23:29:27 69° SW 23:31:21 52° S
Cosmos 1602 Rocket 4.4 23:27:13 10° NNW 23:31:03 44° WNW 23:31:03 44° WNW
CZ-4 R/B 4.0 23:28:51 10° N 23:33:32 63° WNW 23:33:47 61° W
ATLAS CENTAUR R/B 3.4 23:32:02 10° NNW 23:34:44 19° NE 23:35:06 18° NE
Cosmos 1953 Rocket 4.3 23:31:46 10° N 23:35:29 48° NE 23:35:29 48° NE
H-2A R/B 3.4 23:36:33 32° W 23:36:33 32° W 23:40:09 10° NNW
Cosmos 1842 4.5 23:33:14 10° NNW 23:36:06 39° NW 23:36:06 39° NW
SL-08 ROCKET BODY 4.4 23:37:34 58° E 23:37:45 58° E 23:43:30 10° NNE
Cosmos 1707 4.3 23:34:28 10° N 23:36:52 29° NNE 23:36:52 29° NNE
Lacrosse 5 2.1 23:41:51 42° W 23:43:26 65° NNW 23:48:31 10° NE
deb Chang Zheng 4 4.2 23:39:31 10° N 23:43:41 51° WNW 23:43:41 51° WNW
DNEPR-1 R/B 4.4 23:39:41 10° NNW 23:43:51 44° NE 23:43:53 44° NE
Cosmos 2237 Rocket 2.6 23:44:54 48° E 23:44:54 48° E 23:49:36 10° NE
Meteor 2-13 Rocket 4.5 23:44:57 61° ESE 23:45:17 62° E 23:51:22 10° NNE
Cosmos 1980 3.9 23:49:43 59° E 23:49:43 59° E 23:54:48 10° NNE
CZ-2C R/B 3.0 23:50:30 67° WNW 23:50:30 67° WNW 23:54:49 10° NNW
COSMOS 2455 3.6 23:44:39 10° NNW 23:50:29 47° NE 23:52:09 38° E
ATLAS 3B R/B 4.0 23:50:05 10° WNW 23:55:00 22° WSW 23:55:32 22° WSW
CZ-4B R/B 4.3 23:58:19 12° NE 23:58:19 12° NE 23:58:48 10° NNE
